RH
25 26 28 31 35 38 44 46 47 50 55 59 63 67 71 77 83 87 92 96 97 97 97 98 101 104 104 102 98 95 93 89 85 81 77 73 69 65 62 61 61 62 62 62 61 62 59 56 52 49 46 41 35 27 21 16 13 12 12 13 13 14 15 16 16 17 18 18 19 19 19 19 20 20 19 19 19 19 20 20 21 21 20 20 19 18 17 16
28 32 35 36 41 46 48 48 48 51 55 59 63 66 73 82 89 93 98 100 99 98 97 98 102 104 104 102 100 98 93 88 86 82 78 74 70 67 66 66 66 66 64 63 62 58 53 50 46 42 34 25 19 14 13 12 13 14 15 16 16 17 18 19 19 19 20 20 20 20 20 20 20 20 20 19 18 18 17 17 17 18 18 18 18 18 17 16
37 42 40 37 45 49 44 42 47 51 55 59 62 68 76 85 92 97 100 100 100 99 100 102 104 105 104 104 102 98 93 90 87 82 78 74 72 71 70 69 67 66 64 59 55 51 48 43 35 26 18 14 13 13 14 15 16 17 18 19 19 20 20 20 20 21 21 21 20 20 20 19 19 19 18 18 17 17 16 15 15 15 15 15 15 15 15 15
44 48 48 47 50 50 42 39 47 55 61 68 74 82 90 97 101 104 105 105 106 105 104 105 104 105 105 105 102 98 96 93 88 83 79 75 73 71 69 67 66 62 57 53 50 46 38 27 19 14 13 14 15 16 17 18 19 19 20 20 20 20 20 20 20 20 20 19 19 18 18 17 17 17 17 17 17 17 16 15 14 13 13 13 12 12 12 12
40 43 51 57 56 54 47 41 52 63 72 84 93 99 100 102 103 104 107 109 111 109 108 108 108 110 109 107 104 103 102 97 91 85 78 74 70 68 67 64 59 55 52 50 43 31 20 14 14 14 16 16 18 19 19 20 20 21 21 20 20 19 19 19 19 19 19 18 17 17 17 16 17 17 18 18 17 16 14 14 13 12 12 11 11 11 10 10
33 39 51 61 62 63 59 55 69 80 85 96 102 102 100 100 100 101 104 108 111 110 107 107 108 108 106 105 104 102 100 93 84 78 74 71 69 66 63 58 54 53 48 38 25 16 14 15 16 16 17 18 19 20 20 20 20 20 21 20 20 20 20 19 19 19 17 17 17 19 20 19 19 19 19 17 16 15 14 14 14 13 12 11 10 9 9 8
36 46 56 63 67 72 73 74 88 98 100 101 101 100 100 100 100 100 100 102 105 104 103 102 101 102 102 103 102 98 91 84 77 73 71 68 66 61 57 55 53 45 32 20 15 15 16 16 17 18 19 19 19 20 20 20 20 21 22 21 21 20 20 19 19 18 18 20 22 23 23 23 22 21 20 18 18 18 17 15 14 13 12 12 10 9 8 7
45 61 62 58 66 76 80 84 93 104 105 100 101 100 100 100 99 101 100 100 100 100 100 100 100 102 102 104 103 98 89 80 75 70 68 64 60 57 56 53 41 26 16 15 16 16 17 18 19 19 19 19 20 21 21 22 22 22 22 22 22 21 20 19 17 19 23 24 25 26 25 24 24 23 23 23 22 20 18 16 15 15 14 13 12 10 8 6
54 73 66 53 62 72 75 84 96 106 107 100 100 100 99 101 100 100 100 100 100 100 100 100 101 102 102 104 101 95 86 77 71 67 64 60 58 58 52 38 22 15 15 17 17 17 18 19 19 19 20 20 21 21 22 23 22 21 21 22 22 21 20 20 22 24 26 26 26 28 28 25 25 26 27 26 25 22 21 20 18 18 17 16 13 11 8 6
61 77 69 64 76 76 63 75 96 107 110 101 99 101 100 101 100 100 100 101 101 101 102 102 103 104 103 102 96 88 80 72 68 64 61 59 60 52 34 19 15 17 18 17 18 19 19 19 20 21 22 22 22 23 23 22 21 21 21 22 22 22 22 24 25 25 26 28 28 29 30 29 28 30 30 29 30 30 28 27 24 22 20 18 15 12 8 5
64 78 78 84 100 93 62 65 91 105 108 101 99 100 97 100 101 101 101 102 102 102 103 103 103 103 100 95 88 81 75 70 65 62 61 61 50 31 18 16 18 18 18 18 19 18 19 20 22 23 24 23 23 24 23 22 21 21 21 21 21 22 24 24 24 25 27 31 31 31 34 35 33 33 36 39 41 41 39 35 30 26 23 20 16 13 8 5
58 78 93 96 105 99 63 58 85 102 105 99 100 98 94 99 102 102 105 104 103 101 101 100 98 96 92 85 78 74 71 66 63 64 62 48 28 16 17 19 18 18 18 18 18 19 21 22 24 24 24 23 24 24 22 21 20 20 21 21 23 22 22 22 23 26 28 32 34 36 40 41 41 43 48 51 51 48 44 39 33 29 25 22 18 14 10 5
51 70 93 96 103 96 60 53 79 100 104 98 100 100 96 100 103 105 107 105 101 98 97 96 94 90 85 77 73 71 66 64 67 64 47 26 16 18 20 19 18 18 18 18 19 22 23 24 24 24 24 25 25 23 21 21 20 21 22 23 24 23 21 21 24 27 29 33 37 40 44 46 49 54 57 55 52 47 42 38 34 31 26 22 19 16 12 7
53 58 71 77 90 88 61 54 76 100 104 99 101 100 98 97 99 102 101 99 96 94 94 92 91 88 82 76 72 68 66 70 66 46 25 16 19 20 19 19 18 17 18 20 22 24 24 24 24 24 25 25 23 22 22 22 23 23 23 24 24 23 21 23 26 29 32 34 38 41 43 47 52 56 55 51 48 43 39 37 34 30 26 22 19 16 13 9
55 55 57 54 63 69 58 53 76 102 102 99 101 100 99 92 89 94 93 93 92 90 91 91 92 90 83 76 70 70 73 67 45 23 16 19 20 19 19 18 17 18 19 21 23 23 23 24 25 25 25 23 21 21 23 25 25 25 24 23 24 25 24 24 27 30 32 33 37 40 40 44 50 50 49 46 43 41 39 37 32 28 24 22 19 16 13 10
63 65 62 55 55 53 47 48 76 103 101 99 101 100 101 93 87 87 86 87 87 88 93 95 94 87 79 75 75 78 68 45 23 16 19 20 20 19 18 18 17 19 20 21 23 23 25 26 26 27 25 22 21 22 24 26 26 26 25 24 25 27 26 25 26 29 30 31 35 37 38 42 46 45 45 43 40 40 40 37 33 28 25 22 20 17 15 12
89 84 80 78 72 56 52 66 87 102 100 99 101 100 101 99 94 87 84 87 89 93 95 93 87 79 78 82 82 69 44 23 17 20 21 20 20 19 18 18 19 20 21 23 24 25 27 27 26 26 24 23 26 28 27 27 26 25 25 24 25 26 26 26 26 26 27 28 30 33 37 42 44 44 44 41 40 42 41 38 34 30 26 23 22 19 18 16
100 99 94 98 92 67 66 91 103 100 100 100 99 100 100 101 98 91 90 94 96 96 91 87 83 84 90 87 69 43 23 18 20 21 21 20 20 19 19 19 20 22 23 24 24 25 25 25 26 25 25 29 32 32 28 26 25 24 23 23 23 25 26 27 25 25 25 26 27 31 38 41 42 44 43 41 41 42 41 38 36 33 30 26 23 21 20 18
97 103 97 102 99 71 64 89 103 101 100 99 100 100 99 101 97 88 87 91 92 89 85 85 89 95 93 71 42 23 19 21 21 21 21 20 20 20 20 21 23 24 23 23 24 24 24 26 27 27 29 32 32 29 27 26 25 24 23 22 23 24 25 26 26 25 25 25 25 31 37 39 41 43 41 39 40 40 39 39 38 36 33 30 27 25 23 21
95 102 99 102 94 63 54 79 101 103 99 98 100 99 99 101 92 81 85 91 90 87 87 93 98 95 72 41 23 20 21 22 21 22 21 21 21 21 22 23 24 24 23 23 23 24 25 27 28 30 32 30 28 28 28 27 25 25 25 23 22 23 24 25 26 26 25 25 26 30 35 37 40 40 38 38 38 38 38 38 39 38 36 34 33 31 27 22
97 98 99 102 88 55 51 80 101 101 98 101 102 100 101 100 92 89 95 95 90 91 96 101 98 76 42 22 21 22 22 22 22 22 22 23 22 22 23 23 23 23 24 25 26 28 29 31 32 32 32 32 33 33 30 29 26 26 26 24 23 22 23 24 26 27 26 27 28 29 31 35 36 35 36 37 36 36 36 37 38 40 40 39 37 33 27 23
102 100 101 99 79 46 45 80 100 100 100 102 98 96 100 100 99 98 94 91 93 98 101 100 81 46 23 21 23 23 23 22 23 24 25 25 24 23 23 23 22 24 26 28 31 33 34 35 36 34 34 37 40 38 34 32 30 28 26 24 23 21 21 22 24 26 27 30 30 27 28 32 32 32 35 37 37 37 35 36 39 43 46 45 39 32 28 26
105 104 99 84 63 38 41 72 94 99 100 98 93 95 100 101 97 88 83 90 97 101 102 88 54 26 21 24 24 24 24 23 24 25 26 25 23 23 24 24 25 27 29 31 33 36 37 38 39 38 38 41 43 42 39 36 33 29 25 24 23 21 20 21 23 24 27 31 30 26 26 28 29 31 35 36 38 39 37 37 40 43 46 45 40 36 33 30
104 106 91 65 50 40 41 61 85 98 100 98 97 100 102 97 86 79 86 96 100 102 93 63 31 21 25 25 24 25 23 24 24 23 24 24 23 24 25 27 30 33 34 36 38 40 41 41 41 40 40 43 45 44 42 39 35 29 26 25 23 22 21 20 22 22 25 30 30 27 25 26 26 29 34 36 37 39 39 39 39 40 41 41 43 44 41 36
90 91 73 47 39 40 47 67 89 99 100 101 101 99 94 84 80 86 96 100 102 97 70 36 22 24 26 25 26 25 23 24 22 22 23 22 24 26 28 31 34 37 39 40 42 43 43 42 41 41 41 43 44 44 43 40 35 30 29 28 26 25 23 21 21 22 23 27 30 30 25 23 25 28 32 34 35 37 38 38 38 37 38 41 47 49 47 44
64 57 46 33 35 47 66 84 96 100 100 100 101 98 87 81 88 97 100 101 97 74 41 23 24 26 26 27 27 24 24 23 21 23 23 22 25 27 30 33 36 40 42 44 45 44 44 41 40 41 41 42 42 44 44 40 34 32 33 33 31 30 27 23 22 23 23 24 28 32 27 24 25 27 31 33 35 36 37 37 37 38 41 45 49 51 50 47
44 38 34 32 44 66 87 96 99 100 100 100 101 96 86 88 97 100 101 100 78 45 25 24 26 27 28 27 26 24 24 23 23 24 23 25 26 27 31 34 38 44 46 46 46 44 43 41 40 39 39 40 42 45 44 39 35 35 37 36 34 33 30 27 25 23 23 22 25 30 31 28 26 27 29 32 35 37 37 38 39 41 44 46 49 51 52 49
33 35 33 40 63 86 97 99 100 100 100 101 97 89 89 96 100 101 101 83 50 27 24 27 27 28 28 25 25 25 24 24 25 26 26 27 27 28 31 32 36 43 45 44 44 44 45 42 38 37 39 42 45 46 44 40 38 37 37 36 33 32 32 32 29 25 23 22 23 28 33 32 29 27 27 30 36 37 38 41 45 46 46 47 49 51 51 49
30 32 40 64 88 98 100 100 100 100 101 97 89 89 96 100 102 101 86 53 28 25 27 28 29 28 26 26 26 24 24 25 26 28 28 28 29 31 33 35 39 40 39 41 45 48 48 43 38 38 40 42 45 46 45 44 41 38 37 35 32 33 35 36 32 26 23 23 23 26 33 35 32 28 27 31 37 39 42 47 50 51 48 47 48 48 50 50
29 39 65 90 100 101 100 100 100 101 100 92 89 97 101 101 101 88 57 29 24 29 29 29 30 28 27 27 26 26 26 27 29 31 32 32 33 33 34 37 38 36 37 45 53 53 50 47 45 43 41 41 43 46 47 45 42 40 38 34 32 33 35 37 34 28 25 25 24 26 33 38 34 30 29 34 40 42 45 49 53 55 53 49 47 46 48 50
44 68 92 100 100 100 100 101 102 100 96 93 96 101 101 102 92 61 32 24 27 30 30 31 29 28 29 28 28 29 28 29 31 31 32 32 32 31 31 31 31 33 38 46 54 55 53 49 47 47 45 42 43 44 43 41 41 41 38 35 35 34 34 37 37 33 28 27 26 26 33 39 36 31 31 35 40 42 44 50 54 55 53 50 47 47 47 49
81 97 101 100 101 100 98 99 96 91 92 97 100 102 101 92 67 37 24 26 29 31 32 32 31 31 30 30 30 30 30 31 31 31 31 31 30 30 31 32 33 35 35 36 41 48 52 49 46 47 47 43 41 39 38 39 42 42 39 37 36 35 34 34 37 39 34 30 29 27 30 37 38 35 33 35 38 41 45 51 53 51 51 52 50 49 49 49
101 99 98 98 98 93 92 93 91 92 97 100 102 102 91 66 38 25 25 27 29 32 34 33 32 32 31 32 33 33 33 32 32 33 33 32 33 33 33 33 35 35 33 34 37 43 49 49 45 46 46 42 36 34 35 38 40 41 39 37 35 34 33 31 34 40 39 32 30 28 27 33 39 38 36 37 37 40 47 49 48 49 52 53 52 52 51 51
98 95 94 92 90 89 91 95 97 100 100 101 103 94 68 39 25 25 27 28 30 33 35 34 33 33 33 35 36 36 35 35 35 35 36 37 36 35 35 35 36 36 37 41 45 47 48 49 46 44 43 39 35 34 35 36 38 38 37 38 37 35 34 34 34 38 40 35 30 29 27 31 40 41 38 39 38 41 48 46 45 50 55 56 55 55 54 52
96 95 89 86 90 94 97 100 101 101 100 102 96 71 41 26 25 27 27 29 30 33 35 36 36 37 37 37 38 38 37 37 37 36 38 40 39 38 38 38 39 40 41 44 51 54 52 49 48 45 43 41 38 37 37 36 36 36 38 40 39 36 35 37 36 35 38 38 32 29 28 30 39 43 39 37 39 42 47 45 45 53 61 62 61 58 55 52
93 88 86 92 99 99 100 101 100 100 100 93 71 43 27 25 27 27 28 29 31 33 36 37 38 40 40 41 40 39 38 36 37 39 41 41 40 41 41 41 42 43 44 47 52 54 53 50 48 48 47 44 41 40 40 38 35 37 39 37 37 38 38 36 34 32 35 39 36 31 30 30 36 44 42 38 40 43 44 45 49 59 67 67 64 60 57 54
85 86 94 102 103 101 100 100 100 100 90 68 44 28 26 28 28 29 30 31 33 36 37 39 40 41 42 42 40 38 36 35 37 41 43 43 42 42 43 44 45 45 46 48 49 50 50 50 50 49 48 45 42 41 41 41 39 38 38 37 38 40 39 35 33 31 32 38 38 35 32 29 32 43 45 41 41 43 41 44 52 62 70 69 66 64 61 58
87 97 102 102 101 100 100 100 99 90 66 41 28 27 28 29 29 31 31 34 37 39 40 42 44 45 44 42 39 37 35 36 38 40 42 43 44 44 46 47 47 47 47 48 49 48 47 49 49 46 44 44 43 42 41 42 40 37 37 40 41 40 40 38 35 32 31 35 39 38 35 30 28 39 48 44 42 43 42 44 51 61 69 70 68 68 66 63
98 103 101 100 100 100 101 99 88 65 40 27 27 29 30 31 31 32 33 36 39 42 44 46 48 47 45 42 39 37 36 38 40 40 40 41 44 46 48 49 49 50 50 50 49 47 46 46 46 44 42 43 46 45 41 40 40 37 38 40 40 40 41 41 39 35 31 33 39 40 36 33 27 33 48 49 42 43 45 44 49 59 67 70 70 71 71 67
106 103 100 101 100 100 99 89 65 41 28 27 30 31 32 33 33 34 35 37 41 45 49 51 51 49 45 42 39 38 39 40 41 42 41 41 42 44 45 47 49 50 50 50 48 46 44 44 45 45 44 43 45 45 44 43 44 42 40 39 39 39 40 40 38 37 34 34 41 44 39 36 29 28 45 53 44 43 47 46 50 58 65 71 72 72 73 70
105 101 101 100 99 99 91 68 43 29 27 29 31 33 34 34 34 35 36 38 42 48 53 55 54 50 45 42 41 42 42 43 44 45 44 43 42 41 42 44 46 47 48 48 47 46 45 43 44 47 48 46 45 47 47 46 47 47 44 40 38 39 41 39 36 38 40 37 43 49 43 37 32 26 39 54 48 44 48 48 53 60 65 71 74 73 74 73
101 100 100 99 98 92 73 48 32 27 28 30 33 35 35 35 35 36 37 39 43 50 55 57 56 51 47 44 45 46 45 46 48 47 45 44 42 43 44 45 46 47 47 47 46 45 43 42 42 44 47 47 45 47 48 46 46 47 46 41 38 38 40 39 36 38 44 42 43 51 48 40 34 26 34 53 51 45 49 51 56 63 67 73 76 75 76 75
100 100 100 98 94 80 55 36 29 28 29 32 34 36 36 36 37 38 39 40 43 50 55 58 58 54 50 47 47 49 49 49 50 49 48 47 46 47 47 47 48 47 46 46 44 43 42 40 39 39 42 43 41 42 42 40 39 40 43 43 39 36 36 38 38 39 44 45 44 50 52 45 37 27 31 49 54 48 50 53 57 64 69 76 80 78 78 77
99 100 100 95 84 64 41 30 29 29 30 32 34 36 36 36 37 39 40 41 44 49 54 57 59 57 53 50 50 51 51 51 51 51 50 49 48 49 49 50 51 49 47 46 45 44 42 41 38 36 37 37 36 35 33 33 32 33 37 40 38 35 33 37 41 39 41 45 43 47 53 49 41 30 28 45 56 51 50 54 57 63 72 79 82 81 80 78
99 101 99 87 69 49 33 28 30 31 32 35 36 37 37 38 38 38 39 41 43 47 51 56 59 58 57 55 54 54 53 52 51 50 49 49 49 50 52 53 54 53 51 49 47 46 44 43 42 38 36 36 34 32 31 31 33 33 35 39 41 39 35 38 41 38 38 44 45 46 49 49 44 33 27 41 56 53 49 54 58 65 74 81 85 84 82 80
100 100 88 67 49 37 30 29 31 33 35 37 38 39 39 39 39 38 39 41 42 45 49 53 56 57 58 57 56 55 54 52 50 50 49 50 51 52 54 54 55 55 54 52 50 48 46 46 46 43 40 40 39 38 37 37 38 38 39 42 44 42 39 39 40 38 37 42 46 48 48 47 45 36 27 38 55 54 50 54 60 67 75 82 87 88 86 84
101 90 68 46 35 32 30 31 33 35 36 38 39 40 40 39 39 38 39 40 41 44 46 49 53 54 55 55 55 54 53 51 50 50 49 50 52 54 56 57 58 57 55 53 50 48 47 46 48 48 44 44 45 44 43 43 42 44 46 46 45 44 42 40 39 39 38 40 43 47 48 46 44 37 27 36 53 54 50 55 61 67 74 81 90 93 90 88
87 66 47 36 32 31 31 33 34 35 37 38 40 40 40 39 39 38 39 40 41 41 41 43 47 49 51 53 53 52 52 51 51 50 50 52 55 57 58 59 60 57 54 52 47 46 46 45 47 51 50 49 49 48 49 51 51 50 50 47 45 46 44 40 39 39 38 39 40 43 46 45 43 38 28 34 51 54 51 57 61 66 74 81 90 95 92 91
60 44 36 33 31 32 33 35 36 37 38 39 40 41 40 39 39 39 40 40 39 38 38 40 43 45 47 49 50 51 51 51 52 53 53 55 57 59 59 59 58 55 50 47 44 42 43 43 45 50 52 51 53 55 57 58 57 53 48 46 47 49 44 37 38 39 38 39 39 39 44 44 42 38 29 33 51 56 53 57 61 66 74 82 89 93 92 92
40 35 33 31 32 33 35 37 38 39 40 40 41 41 40 39 39 39 39 39 39 39 41 43 45 46 47 48 48 49 50 50 53 54 56 58 59 58 57 55 52 49 46 44 43 42 43 44 44 46 50 51 53 56 56 54 52 48 46 49 50 48 42 37 39 40 38 38 38 37 41 42 41 37 30 33 51 58 54 57 62 67 75 82 87 90 91 93
36 33 32 31 33 34 36 39 40 40 42 42 42 41 40 40 39 39 39 40 41 43 44 45 46 47 47 47 47 48 50 52 55 57 58 58 56 54 51 47 46 46 46 45 45 44 44 44 42 43 47 48 47 49 50 48 48 48 50 52 48 43 42 41 42 42 38 36 37 37 38 40 41 37 29 34 51 59 56 56 61 68 76 82 86 89 92 93
33 32 32 33 35 36 38 40 41 42 43 44 43 43 42 42 42 41 42 43 42 42 43 43 44 45 46 47 48 49 52 54 56 56 55 53 51 49 46 45 45 47 50 50 49 47 45 43 41 40 42 44 45 47 48 48 49 52 51 46 41 41 47 48 44 41 38 36 35 35 36 39 40 35 29 37 54 60 57 57 62 70 77 82 87 92 94 93
Wind_Speed
29 29 29 30 34 37 37 37 37 36 35 33 31 30 29 29 29 29 29 29 28 28 27 26 26 26 27 27 28 29 31 32 33 35 37 38 40 41 43 44 46 47 48 49 51 52 53 55 56 58 58 59 58 58 57 55 54 54 54 55 55 57 58 59 61 62 63 65 66 68 70 70 71 74 77 79 78 77 76 76 78 82 87 91 94 98 102 105
26 27 28 30 32 35 36 36 35 34 32 31 30 29 28 27 27 27 28 28 28 27 26 26 26 26 27 28 29 30 31 33 34 36 37 39 40 42 43 44 45 47 48 49 51 52 54 55 55 55 54 53 52 51 51 50 51 51 52 54 54 55 57 58 60 62 63 64 65 66 69 68 68 71 74 77 78 78 78 77 76 78 82 86 90 94 99 103
24 25 28 30 32 34 35 34 33 31 30 29 28 27 26 26 26 26 27 27 27 27 26 26 26 27 27 28 30 31 32 34 35 36 38 39 40 41 42 44 45 47 49 50 51 52 53 53 52 50 48 47 46 47 48 48 49 50 51 52 53 53 54 55 56 58 59 60 62 62 64 65 64 66 69 72 74 76 77 77 76 75 78 81 85 89 93 98
23 24 26 28 31 32 32 31 30 29 28 27 25 24 24 23 24 24 25 26 26 25 25 26 26 27 28 29 31 32 33 34 35 37 38 39 40 41 43 44 46 48 49 50 51 51 50 48 46 44 43 43 44 45 46 47 47 48 48 48 49 50 50 51 52 54 55 56 57 59 61 61 61 63 65 67 70 71 72 74 75 75 76 77 80 84 87 91
24 24 25 27 29 29 29 29 28 27 26 24 23 21 21 21 22 23 24 24 24 25 25 26 27 28 29 30 31 32 33 34 35 36 37 38 40 42 43 45 46 48 49 49 48 47 44 42 40 40 40 41 42 42 42 43 43 44 45 45 46 47 48 49 51 53 55 56 57 59 62 61 61 62 64 66 68 69 70 72 73 74 75 75 77 79 81 84
25 25 26 26 27 28 28 27 26 26 25 23 21 20 20 20 21 22 23 23 24 24 25 25 27 28 29 29 30 31 32 33 34 36 37 39 41 42 44 45 47 47 47 46 43 41 39 37 37 38 38 38 39 39 39 39 39 40 43 44 46 47 48 50 51 53 56 58 60 62 64 64 63 64 65 67 68 70 71 72 72 73 73 74 75 76 77 78
25 25 26 27 27 27 27 26 25 24 23 22 21 20 20 20 20 21 21 22 22 23 24 25 26 26 27 28 29 30 31 33 35 37 38 40 41 43 44 45 46 45 43 40 37 35 35 35 36 36 36 35 35 37 38 38 38 40 42 44 46 48 49 50 52 55 58 60 62 63 64 66 66 67 69 70 72 74 75 75 75 75 76 77 77 77 77 76
25 25 26 27 27 27 28 27 25 23 22 21 20 20 20 19 19 20 20 21 21 22 23 24 24 25 26 27 28 30 32 34 35 37 39 40 42 43 44 44 42 40 36 34 33 32 33 34 34 34 33 33 34 35 36 37 38 39 41 45 47 49 51 53 55 57 59 60 62 63 64 66 68 70 72 74 76 78 79 79 80 80 81 82 81 80 79 77
25 25 26 26 26 26 28 26 25 23 22 20 19 19 19 19 20 19 20 20 21 22 22 23 24 25 25 26 28 30 32 34 36 37 39 40 42 42 42 40 36 33 31 31 31 31 32 32 32 32 33 33 34 35 35 37 38 39 41 44 48 52 54 56 57 57 58 60 61 63 66 68 70 72 74 76 79 81 84 85 86 87 87 86 84 82 79 76
26 26 24 23 22 23 26 25 23 22 21 18 16 18 19 19 19 19 19 20 20 21 22 22 23 23 24 25 28 31 33 35 36 38 39 40 40 40 37 33 30 29 29 29 29 29 30 30 31 32 33 34 34 35 36 37 38 40 42 45 49 53 56 55 55 57 59 61 63 64 67 70 71 73 75 78 82 85 88 89 90 90 90 88 85 81 76 71
28 27 24 23 21 22 24 24 22 21 19 15 12 17 19 18 19 18 18 18 18 19 19 20 21 22 24 27 30 32 33 35 36 37 38 39 37 34 31 28 27 27 27 27 28 28 28 28 30 31 32 34 34 35 36 38 40 42 46 49 50 51 51 52 55 57 59 61 64 66 68 71 72 74 77 80 83 85 87 89 91 92 92 90 85 79 73 66
29 28 26 26 25 25 25 23 21 20 17 13 12 16 17 17 18 17 17 17 17 18 19 20 22 24 26 29 31 32 34 35 36 36 37 35 32 28 26 26 25 25 25 25 26 26 26 27 28 30 32 33 34 35 37 40 43 46 48 50 51 49 49 51 54 56 58 61 64 67 68 70 72 74 77 79 81 83 85 89 92 93 93 90 86 81 74 66
31 30 29 29 28 28 26 22 20 19 17 12 11 15 17 17 17 17 18 18 18 19 20 22 24 26 29 31 31 32 33 34 35 35 33 30 26 24 24 23 23 23 23 23 24 24 25 27 29 31 32 33 34 37 40 44 47 48 48 49 50 51 51 53 54 56 59 62 65 67 68 71 73 74 75 77 79 82 85 88 90 91 91 89 87 83 78 71
31 30 31 31 30 28 25 21 19 19 17 12 10 14 17 18 18 18 19 20 20 21 22 24 25 28 29 30 31 32 33 33 33 31 28 24 21 21 21 20 20 20 21 22 23 24 25 27 29 30 31 33 36 40 44 47 48 48 48 48 49 52 53 54 56 58 61 64 67 68 69 71 74 75 76 77 80 82 85 87 88 88 88 88 87 84 80 75
30 29 30 30 29 28 25 21 19 19 16 12 12 13 17 19 20 20 20 21 22 22 23 24 25 27 29 30 31 31 31 31 29 26 22 20 19 18 17 17 18 18 20 22 23 25 27 28 29 30 32 34 36 41 45 47 48 48 49 48 50 53 56 57 59 62 64 66 69 69 70 72 75 76 77 79 81 83 85 86 88 88 88 88 87 86 83 79
27 27 27 27 27 27 24 21 20 18 14 12 13 12 15 18 20 20 20 21 21 21 21 23 25 27 28 29 30 30 29 27 24 21 18 17 16 15 15 16 17 19 21 23 25 27 29 30 31 34 35 37 39 41 43 45 47 49 50 52 52 54 57 59 61 63 63 65 69 71 72 75 77 78 79 79 80 82 84 86 89 90 89 89 89 88 87 84
23 23 24 23 24 24 21 21 22 19 16 15 15 14 16 17 19 20 19 19 19 20 21 24 26 27 28 28 28 28 26 23 20 17 15 14 13 13 14 16 18 21 23 24 26 29 30 32 34 35 37 40 44 44 43 44 45 48 50 53 54 54 56 59 61 62 63 64 67 71 74 77 78 78 79 79 80 82 84 87 89 90 90 90 91 91 90 89
28 26 26 26 26 23 21 22 22 22 18 15 16 17 18 19 19 19 18 18 19 21 23 24 25 26 26 26 26 24 21 19 17 14 12 11 11 12 15 17 20 22 24 26 28 30 31 34 35 37 39 43 44 43 43 43 45 47 48 50 53 55 57 59 60 61 65 66 66 72 77 76 76 78 78 79 80 83 85 87 90 91 92 93 93 93 93 91
34 32 31 32 32 26 22 22 22 21 16 13 15 17 17 17 18 18 18 19 20 21 22 23 24 25 25 24 22 20 18 16 13 11 10 10 11 12 15 17 20 22 24 27 29 31 33 35 37 38 40 40 39 40 42 44 47 49 49 50 53 57 58 58 60 61 65 67 68 73 77 76 76 78 78 79 81 83 85 87 89 91 93 94 95 95 94 92
37 37 34 33 33 27 23 22 21 17 14 15 17 17 16 17 18 18 18 19 20 20 21 22 23 24 23 21 18 16 15 13 11 10 9 10 11 12 15 18 20 22 25 28 30 32 34 36 38 39 39 39 40 42 44 47 48 51 54 54 54 58 60 59 61 63 66 70 73 75 76 77 78 77 78 81 83 84 86 87 89 91 93 95 96 95 94 93
40 41 37 33 32 27 23 23 21 16 15 19 20 19 18 18 18 17 17 18 19 20 21 22 23 22 20 17 15 14 13 11 9 9 10 10 11 12 15 17 20 23 27 30 32 33 35 37 38 40 41 42 44 46 48 49 50 53 56 57 56 56 60 62 63 64 67 73 77 76 76 78 78 77 79 82 84 85 87 88 90 92 95 96 95 95 95 95
42 42 40 38 35 28 22 23 24 19 18 22 23 21 19 18 17 16 17 19 20 20 21 22 22 19 16 14 14 12 10 9 9 9 11 11 11 13 16 18 20 23 26 29 31 33 35 37 38 40 41 44 46 48 50 52 54 55 56 58 58 56 58 63 66 66 67 73 77 76 76 77 77 78 81 82 85 87 88 90 92 94 95 95 95 96 97 97
45 44 43 40 36 28 22 23 25 23 21 21 21 20 20 20 20 19 19 19 19 20 21 21 19 16 14 13 12 10 8 8 8 10 12 12 13 15 18 20 22 24 26 28 30 32 34 37 39 40 41 44 47 50 52 55 57 57 57 59 61 59 58 62 68 69 69 71 74 75 76 76 77 80 82 83 86 89 90 92 95 96 95 94 96 99 100 100
47 45 43 39 34 28 22 22 23 22 20 19 20 20 22 23 22 20 18 18 20 21 21 19 16 13 12 12 10 9 8 8 9 11 13 14 15 17 19 22 24 26 28 30 32 34 35 37 39 40 41 44 47 50 53 56 57 59 60 60 62 64 64 64 69 71 71 70 72 76 77 76 76 80 83 85 86 88 91 94 96 96 95 96 99 101 103 103
47 45 41 35 30 25 22 21 20 19 19 21 22 23 24 22 20 18 18 18 20 21 19 16 12 12 12 11 10 9 9 10 11 12 14 15 16 18 20 22 24 27 30 31 33 34 36 37 39 40 41 44 47 50 53 56 58 60 62 64 65 68 69 68 70 73 74 72 73 76 77 76 78 82 84 86 86 88 91 94 96 97 99 102 103 103 104 105
44 42 37 30 25 22 21 19 18 19 22 22 23 24 23 20 18 17 18 19 21 20 16 12 11 12 11 10 11 11 11 12 13 14 15 16 16 18 21 23 25 27 30 32 33 34 35 37 38 40 42 44 47 50 53 55 58 61 64 66 68 70 71 71 71 74 76 74 73 76 78 80 82 85 87 87 89 91 92 94 96 100 104 106 105 105 104 105
40 37 32 27 24 22 21 19 19 22 23 23 24 23 21 18 17 17 18 20 20 17 13 11 11 12 11 11 12 12 12 13 14 15 16 17 17 19 21 23 26 29 31 32 33 34 35 37 39 41 43 45 47 50 52 54 57 60 64 67 68 69 72 73 74 75 77 77 76 77 81 84 86 87 88 90 92 94 95 97 101 105 107 107 106 105 105 105
35 33 29 26 24 23 21 21 22 23 23 24 24 22 19 18 17 17 19 20 17 14 12 12 12 12 13 13 13 13 13 14 16 17 18 18 19 20 22 24 26 29 31 32 33 35 37 39 40 42 44 46 48 50 51 54 56 58 62 65 67 69 72 75 76 76 77 79 79 79 82 85 88 88 89 92 96 98 99 102 104 107 108 107 106 105 105 106
32 31 28 26 25 23 23 24 24 24 25 26 23 20 18 17 17 18 19 17 14 12 12 12 13 14 14 14 13 14 14 16 17 19 20 21 21 22 23 25 27 29 31 34 35 37 39 40 41 42 44 46 48 50 52 54 55 57 60 63 66 69 72 75 76 76 78 80 82 81 82 85 88 89 90 94 97 99 101 104 106 107 108 107 107 106 106 108
31 30 28 26 25 25 25 25 25 25 26 24 20 18 18 17 18 18 17 14 12 12 13 13 14 15 15 14 14 14 15 17 19 20 21 21 22 23 25 27 29 31 34 37 38 38 39 40 42 44 45 46 48 51 53 54 55 57 58 61 64 68 70 74 77 77 78 82 84 84 84 86 88 90 92 95 98 100 101 103 105 107 108 107 107 108 108 110
30 28 27 26 26 27 27 26 26 26 25 21 19 18 18 18 18 17 15 13 12 13 14 15 15 15 15 15 15 16 17 18 20 21 22 22 23 25 27 29 30 32 33 35 36 38 40 42 44 46 46 47 49 51 52 54 56 57 58 60 63 66 69 73 77 79 80 83 85 86 86 87 89 91 93 95 97 98 100 102 105 106 106 107 108 109 110 111
29 28 28 28 29 28 28 27 27 25 22 19 19 18 18 18 17 16 14 12 13 14 15 15 15 15 15 16 17 18 18 20 21 22 23 24 25 27 29 30 31 32 32 33 35 38 41 42 44 46 47 48 49 50 52 54 57 58 59 61 62 64 67 70 75 80 82 83 86 87 85 86 89 92 93 94 95 97 99 102 104 105 106 107 109 111 112 113
30 30 29 29 29 28 27 26 24 22 20 19 18 18 18 17 16 14 13 13 14 15 16 16 16 16 17 18 18 19 20 21 22 24 25 26 27 29 30 31 33 34 35 36 36 38 40 42 44 46 47 49 51 52 53 55 57 59 61 62 63 65 68 70 74 79 83 84 85 87 87 86 88 91 92 94 95 97 100 102 103 105 107 108 110 112 114 115
31 29 28 28 27 26 23 21 20 20 20 19 18 18 17 16 15 14 13 14 15 16 17 17 18 18 18 18 19 20 21 22 24 26 28 29 30 31 32 34 35 36 37 38 39 39 41 43 45 47 49 52 54 55 56 57 58 61 64 66 68 69 71 74 77 79 83 84 84 86 88 88 88 90 92 93 96 98 100 102 104 107 109 111 113 114 115 116
30 27 26 25 24 22 20 20 20 20 19 19 18 17 16 15 14 14 14 15 16 17 18 19 19 19 19 19 20 21 22 24 27 28 29 30 31 33 34 36 37 38 38 39 41 42 43 45 47 49 52 54 56 58 58 59 60 62 65 68 70 72 73 75 77 79 82 85 85 86 89 90 89 90 91 92 95 98 101 103 105 108 111 113 114 115 116 116
28 25 23 22 21 20 20 20 20 20 20 19 18 17 16 15 14 15 15 16 17 18 19 20 20 20 20 20 20 21 23 25 28 29 30 31 32 34 35 36 37 38 40 41 41 43 45 46 49 51 54 56 57 59 60 61 63 65 66 68 70 73 74 74 75 78 81 86 88 87 88 89 88 88 90 93 95 98 101 104 107 109 112 113 114 115 116 118
26 23 21 21 21 20 20 20 20 20 19 18 17 16 16 15 15 16 17 17 18 19 20 21 21 21 20 21 21 22 24 26 27 28 30 31 32 33 35 36 38 39 41 42 43 44 46 48 50 53 55 57 58 59 61 63 64 66 67 69 71 73 75 75 76 77 80 83 87 88 88 88 88 87 90 93 95 97 100 103 106 108 110 112 114 115 117 118
24 23 21 20 20 20 20 20 20 19 18 17 17 16 15 16 16 17 18 18 19 20 21 21 22 22 21 22 22 24 26 27 27 28 29 30 32 33 35 37 39 41 42 43 44 46 47 49 52 54 56 58 59 61 62 63 65 66 68 71 72 73 76 78 79 79 80 82 85 88 89 90 90 89 89 92 93 95 98 102 104 106 108 111 113 115 117 118
24 22 21 20 19 20 20 21 20 19 18 17 17 16 16 17 18 19 19 19 19 20 21 22 22 23 23 23 23 25 26 27 28 28 29 31 32 34 36 38 40 42 43 44 46 48 50 52 54 56 57 58 60 62 63 64 66 67 68 70 72 74 76 79 81 82 82 84 86 88 90 91 92 90 89 91 93 95 97 101 103 105 107 110 112 114 116 118
23 21 20 19 19 20 20 20 20 19 18 18 17 17 18 19 20 20 20 20 20 21 22 23 23 24 24 24 24 26 27 28 29 30 31 32 34 35 37 39 41 43 44 46 48 50 52 53 55 57 59 59 61 63 65 67 68 69 70 71 72 74 76 78 81 83 84 85 88 90 90 92 93 91 89 91 94 96 98 101 103 105 107 109 111 113 115 118
22 20 20 20 20 20 21 20 20 20 19 18 18 18 19 20 21 21 21 21 21 22 23 24 24 25 25 25 25 26 28 29 30 31 33 34 35 36 38 40 42 44 46 47 49 51 53 55 56 58 60 62 63 64 66 67 69 71 71 72 73 75 77 78 80 83 85 86 88 91 91 92 93 92 90 91 94 97 99 102 103 105 107 108 111 113 115 117
20 20 21 21 22 21 21 21 21 20 19 18 19 19 21 22 22 22 22 22 22 23 24 24 25 26 26 26 26 27 29 30 31 32 34 35 37 39 41 42 44 46 48 50 51 53 55 56 58 59 61 63 64 64 65 66 68 70 72 74 74 75 77 79 81 84 86 86 86 89 91 92 93 93 91 91 94 97 100 101 102 104 106 108 111 113 114 116
21 21 22 22 22 22 22 21 21 20 19 19 20 21 22 23 23 23 23 23 23 24 25 26 27 27 28 28 28 29 30 32 33 34 36 38 40 41 43 45 46 48 50 52 54 55 57 58 59 60 62 63 64 65 66 67 68 69 71 73 74 75 76 79 81 83 86 87 86 87 90 93 93 94 93 91 93 97 99 100 102 104 106 109 111 113 114 115
21 22 23 23 23 23 22 22 22 21 20 20 20 22 23 24 24 24 24 24 25 25 26 27 28 29 30 30 30 31 32 33 35 36 38 40 41 43 45 46 48 49 51 53 56 58 60 62 63 63 63 64 65 65 66 68 69 70 71 73 75 76 77 79 81 83 84 86 86 85 88 92 94 94 93 91 92 95 97 99 101 104 107 109 111 113 114 115
23 23 23 23 23 23 23 23 22 21 20 21 22 23 24 25 25 26 26 26 26 27 28 29 30 31 32 33 33 34 35 36 37 39 40 42 43 45 47 48 50 52 53 56 58 61 64 66 68 68 67 67 68 68 69 70 71 72 72 74 76 78 78 80 81 82 83 86 87 86 86 90 93 93 92 90 90 92 95 97 100 103 106 109 111 113 114 115
24 24 24 24 24 24 24 23 22 21 21 22 23 25 26 27 27 27 28 28 28 29 29 31 32 33 34 35 36 37 38 39 40 42 43 45 46 48 49 51 52 54 56 58 60 63 65 68 70 71 70 70 70 71 72 72 73 74 74 76 78 79 80 81 82 83 83 85 87 88 87 89 91 93 92 89 89 90 93 96 99 103 105 108 110 112 114 116
25 24 24 25 25 25 24 23 22 22 22 23 25 26 27 28 29 29 29 30 30 31 32 33 34 35 37 38 39 40 42 43 44 45 47 48 49 50 51 53 55 56 58 60 61 64 66 67 69 71 71 70 71 72 73 73 74 75 76 77 78 79 80 81 82 83 83 84 85 87 89 89 91 93 92 89 88 89 92 95 99 101 104 107 110 112 114 116
25 25 25 25 25 25 25 24 23 23 23 25 26 27 28 29 30 30 31 32 33 33 34 36 37 38 39 40 42 43 45 46 47 48 49 50 51 52 54 55 57 59 60 62 63 64 67 67 68 70 71 71 72 73 74 75 76 76 77 77 78 79 79 80 81 81 83 84 84 85 87 89 90 92 92 89 88 89 92 95 98 100 103 106 109 111 113 115
26 26 26 26 26 26 25 24 24 24 25 26 27 28 29 30 31 32 33 34 35 36 37 38 39 40 41 42 43 45 46 47 48 50 51 52 53 54 56 57 59 60 62 64 65 65 66 67 67 69 71 71 72 73 74 75 76 77 77 77 79 80 79 78 79 80 81 83 84 83 85 87 88 91 92 89 88 90 91 94 97 99 102 105 107 110 112 114
27 27 27 27 27 26 26 25 25 25 26 27 28 29 30 31 32 34 35 36 37 38 39 40 41 42 43 44 45 47 48 49 50 51 52 54 55 56 57 59 60 62 64 65 66 66 66 66 67 68 70 71 72 73 73 74 75 76 76 77 78 79 80 79 79 80 81 81 83 83 84 85 87 89 91 89 88 89 91 93 96 99 101 103 106 109 111 113
27 27 28 27 27 27 26 26 26 27 27 29 29 30 31 32 34 35 36 38 39 40 41 42 43 44 45 47 48 49 49 50 51 53 54 55 57 58 60 61 62 64 65 66 66 67 67 67 68 68 70 72 72 73 74 74 75 76 76 76 77 78 80 81 80 81 82 81 82 83 83 85 86 88 89 88 87 89 91 92 95 98 100 102 105 108 110 112
28 28 28 28 28 28 28 28 28 29 29 30 31 32 33 34 36 37 38 40 41 42 43 44 45 46 47 48 49 49 50 51 53 54 56 57 59 61 62 63 64 64 66 67 67 68 68 69 70 70 70 72 73 73 74 75 75 76 76 76 76 77 80 82 81 81 82 82 82 82 83 84 85 86 87 86 85 87 90 92 94 97 99 102 105 107 109 111
Wind_Direction
189 190 191 190 189 191 193 196 199 203 206 208 209 212 214 216 220 223 226 229 231 235 238 242 246 250 254 258 262 266 270 273 276 277 279 281 282 284 286 287 289 290 290 291 291 292 293 293 294 295 296 296 296 296 297 297 299 300 301 302 304 304 304 304 302 300 298 296 294 292 291 291 289 288 288 288 287 285 284 284 284 285 285 285 284 283 283 283
190 190 190 189 189 191 193 196 199 202 205 207 209 211 214 217 220 223 226 230 233 236 240 244 249 254 258 262 266 270 272 275 276 278 281 283 285 287 289 290 291 292 292 293 294 295 296 297 298 298 298 299 299 301 302 304 306 308 308 308 308 306 304 302 299 297 295 293 291 290 290 290 288 288 288 288 288 286 285 283 282 282 283 283 283 282 282 281
193 190 191 192 191 194 196 198 198 201 204 208 210 213 215 218 222 225 228 231 235 239 243 248 253 257 261 265 269 271 273 275 278 280 283 285 288 290 291 292 293 294 294 296 297 298 299 300 300 300 301 303 305 308 310 312 312 312 310 308 306 303 301 298 297 295 293 292 292 291 290 290 291 292 292 293 293 292 291 289 286 284 282 282 282 281 281 280
193 190 191 193 194 197 199 199 199 201 204 207 210 213 217 221 225 229 232 235 239 243 248 253 257 261 264 267 270 272 275 277 280 283 286 288 290 292 293 293 295 296 298 300 301 301 302 302 303 305 308 312 314 315 314 313 312 309 307 305 303 302 301 301 300 299 298 297 296 296 295 295 297 299 299 300 301 301 299 297 294 291 288 286 285 283 282 281
189 188 190 195 197 198 201 200 199 201 203 205 209 214 219 224 229 233 236 240 244 248 253 257 260 263 266 268 271 274 277 280 284 286 288 290 292 293 294 296 298 300 302 303 303 304 305 307 310 313 316 318 316 314 311 309 307 306 305 305 305 306 307 307 308 307 307 306 306 307 308 307 307 308 308 307 307 306 305 303 302 300 298 295 292 290 287 285
187 186 190 195 198 199 202 201 199 201 202 204 208 213 219 225 231 236 240 244 247 252 255 258 261 264 267 270 273 276 280 284 286 288 290 292 293 295 297 300 302 303 304 305 306 308 311 314 317 318 318 316 313 311 309 307 306 307 309 311 312 313 315 315 316 316 316 317 318 319 319 318 316 316 315 314 313 313 313 312 311 310 308 305 302 299 295 292
185 188 191 193 196 199 202 201 199 201 202 204 209 214 219 224 231 236 240 245 248 252 255 258 261 265 270 274 278 281 284 286 287 290 292 294 296 299 301 304 305 306 307 309 311 315 318 319 319 318 315 313 312 312 311 312 314 317 318 319 320 321 322 322 322 324 325 325 325 325 326 325 324 324 323 323 323 323 322 321 320 320 318 316 312 308 305 301
186 190 193 193 195 199 201 202 200 199 202 205 211 217 221 226 232 237 240 244 248 252 256 261 266 270 275 279 282 285 286 287 289 292 294 297 300 303 305 307 308 309 310 314 318 320 321 320 317 315 314 315 316 316 317 321 323 323 324 326 327 327 328 328 329 331 331 329 328 329 329 328 329 331 331 330 329 328 328 328 328 327 326 324 321 317 313 308
187 192 197 195 195 201 201 201 201 201 203 208 215 222 225 230 234 239 243 247 251 256 261 266 271 274 278 282 284 286 287 290 293 295 299 302 305 307 309 309 310 312 316 320 322 322 320 318 316 316 319 320 320 322 325 327 326 326 329 332 333 333 334 336 336 335 332 331 332 333 332 332 334 335 334 333 333 333 333 333 333 332 331 329 326 323 318 313
189 194 199 197 198 206 204 199 202 202 204 210 223 232 231 234 238 242 248 252 257 261 266 270 273 278 281 284 285 287 290 293 296 300 303 306 309 310 310 311 314 319 322 323 323 321 320 319 321 323 325 325 328 332 332 329 330 333 337 338 338 340 341 341 338 334 334 335 335 336 337 337 337 337 337 337 337 337 336 335 334 334 334 333 331 328 323 316
190 193 197 197 198 210 208 198 200 203 203 207 225 239 237 238 244 248 253 257 262 265 269 273 277 281 283 284 286 291 294 297 301 305 308 310 311 311 312 317 321 324 324 323 323 322 323 325 327 328 329 332 336 336 333 333 337 340 342 341 341 343 343 338 335 336 338 339 339 340 342 342 340 340 341 341 340 338 337 335 335 336 336 335 334 333 330 323
190 192 195 198 200 209 209 199 200 201 198 203 224 240 241 244 248 251 256 259 263 267 272 277 281 284 284 286 290 294 298 302 306 309 311 312 311 314 319 323 325 325 324 325 325 326 329 331 332 333 334 338 338 335 335 339 342 344 344 344 343 342 339 336 337 339 340 342 345 347 347 346 345 345 345 343 341 339 337 337 337 337 338 337 337 339 338 333
191 192 196 201 204 210 212 202 200 199 197 208 237 250 247 246 249 252 256 260 265 271 278 282 284 284 286 289 293 297 302 306 310 311 312 311 315 321 324 325 325 325 327 328 330 334 337 337 338 337 339 340 338 338 342 346 347 347 347 347 346 342 339 339 341 342 344 347 350 351 351 350 349 349 347 344 341 340 339 338 338 338 338 340 341 343 345 342
192 194 199 204 207 212 215 206 200 198 199 209 232 252 252 248 250 254 258 263 269 275 281 283 284 285 287 292 296 301 306 310 311 311 311 314 321 324 323 324 327 330 333 335 339 342 342 343 341 339 342 342 342 346 351 352 352 351 349 348 345 342 342 344 346 349 352 353 353 353 353 352 353 351 348 345 342 340 340 339 339 339 340 343 344 346 348 347
195 198 204 207 208 213 215 208 201 198 201 212 224 248 257 252 253 257 261 267 272 277 280 282 283 285 289 295 301 306 309 310 310 310 314 321 324 323 324 329 333 339 343 346 347 346 346 345 341 342 344 342 345 352 355 354 353 351 349 347 347 348 348 349 352 354 355 355 354 354 353 353 354 351 348 345 343 341 341 340 339 340 343 345 348 349 350 350
198 202 209 211 210 214 215 208 200 193 197 210 218 245 261 258 258 260 265 271 274 276 277 279 281 286 293 300 306 308 309 309 309 313 321 324 322 324 331 337 344 350 353 352 350 348 347 344 343 346 344 343 350 355 355 353 352 351 350 349 350 352 351 351 354 355 354 355 355 353 354 355 354 352 349 346 344 343 343 342 342 343 345 347 350 352 353 353
201 209 215 219 220 218 210 201 194 187 192 206 216 237 254 258 261 265 270 273 273 273 274 278 285 293 300 304 307 307 306 309 313 320 323 320 321 331 340 347 353 357 356 353 350 349 346 343 345 345 343 350 357 357 355 353 352 352 352 351 350 352 352 352 354 353 352 355 354 353 356 357 355 352 350 347 346 346 345 344 345 345 347 350 353 355 355 355
196 208 215 222 230 223 201 192 192 192 199 216 232 245 254 260 265 268 268 269 270 272 277 285 293 299 303 304 305 305 308 313 317 320 317 317 328 341 348 354 357 356 355 353 352 350 348 348 348 347 350 357 358 354 352 351 351 353 353 351 350 352 353 352 352 352 353 354 354 356 358 357 355 354 352 350 350 349 348 347 347 348 350 352 354 356 357 356
187 197 207 217 228 221 197 194 197 199 206 224 239 249 255 259 265 268 266 268 272 279 287 294 299 301 302 302 304 307 311 314 314 314 314 325 339 348 354 357 357 356 355 355 355 353 353 353 351 351 355 355 352 349 349 351 353 353 353 354 354 353 354 352 351 354 355 355 357 0 359 356 356 355 353 352 353 352 351 351 350 351 352 354 356 357 357 357
187 191 198 211 221 213 196 198 197 197 207 218 231 241 246 253 264 272 272 273 279 287 294 297 299 300 300 302 305 308 310 310 311 314 322 336 346 352 356 357 356 355 355 356 355 354 353 353 352 353 353 350 349 350 352 354 355 355 355 357 357 355 354 353 353 355 356 357 1 2 358 356 356 355 354 355 355 355 354 353 353 353 354 356 357 358 358 359
195 194 198 206 215 209 194 194 189 187 207 217 225 234 244 260 271 274 273 277 286 293 295 296 298 298 300 303 305 305 306 306 309 317 330 340 344 348 352 353 354 354 356 356 354 353 352 351 351 351 350 350 352 353 354 355 355 356 357 357 357 356 355 354 354 355 358 0 2 1 359 357 355 354 356 357 357 357 357 356 356 357 358 358 358 358 359 360
200 199 202 207 212 207 192 192 189 188 210 222 228 237 251 261 262 265 274 283 290 292 293 295 296 297 300 302 300 301 304 305 313 326 336 338 338 342 348 349 350 353 356 356 352 351 350 349 349 349 350 351 353 354 354 354 355 356 357 356 356 356 356 356 356 356 359 2 1 360 360 357 355 356 358 359 359 360 359 359 360 0 0 360 358 359 360 0
202 203 207 210 213 209 197 198 198 198 215 229 236 244 248 249 254 267 279 286 289 289 292 293 293 296 299 295 293 295 301 309 321 330 333 331 332 338 344 346 349 352 353 352 349 347 346 346 346 348 350 352 354 354 354 355 355 355 356 357 356 356 357 358 357 357 359 0 359 359 360 358 356 358 359 360 1 1 1 2 3 3 1 360 0 1 1 1
203 206 211 213 214 211 204 205 205 207 220 230 236 239 241 249 263 275 282 284 285 288 290 289 291 293 290 287 285 287 294 305 315 322 325 327 332 339 343 347 350 350 350 349 346 346 345 344 346 348 350 352 354 354 354 354 353 354 356 357 357 357 357 358 359 358 358 358 357 358 359 357 357 359 0 1 1 2 3 4 5 4 2 2 3 4 3 3
204 207 211 213 209 206 203 203 204 212 223 229 233 238 246 259 271 277 279 280 284 287 287 285 288 286 281 277 277 280 288 295 306 315 320 325 333 339 342 345 347 347 347 346 344 344 343 345 347 348 350 352 353 353 354 353 353 354 355 356 358 358 358 358 359 358 357 356 357 357 357 358 359 360 1 1 1 2 4 5 5 4 4 5 5 5 5 5
205 207 209 207 201 197 196 197 203 215 225 232 238 244 255 266 272 274 275 279 283 283 281 281 282 278 274 271 272 280 287 292 300 309 317 324 330 334 338 341 343 344 344 343 343 343 344 346 347 348 350 351 352 353 353 353 353 354 355 357 358 358 358 358 359 359 357 355 356 356 356 359 0 0 1 1 2 3 4 5 5 6 7 7 7 6 6 6
205 205 203 198 192 189 189 195 207 217 224 232 239 247 259 268 270 272 275 279 281 278 275 276 274 271 269 269 274 283 290 296 304 311 317 322 325 328 334 337 339 340 341 340 341 343 346 347 347 348 349 350 351 352 352 353 354 354 355 356 357 357 357 357 358 359 357 356 356 356 357 359 0 0 360 1 3 3 4 5 7 8 8 8 8 7 6 6
200 198 194 189 185 184 189 200 208 215 222 230 239 250 261 265 268 273 277 278 274 270 270 271 268 265 266 269 276 284 293 301 308 314 317 319 321 325 329 332 334 336 336 337 340 345 346 346 346 347 348 349 350 351 351 352 353 354 355 355 356 357 358 357 357 358 358 356 356 357 358 359 360 360 360 1 3 4 4 6 7 8 8 8 8 8 7 7
189 186 182 179 181 187 196 203 208 216 225 233 243 253 258 262 267 272 274 272 266 263 265 265 264 264 265 270 279 288 296 303 310 314 316 319 322 325 327 329 331 332 334 338 343 345 344 343 344 346 347 348 349 349 350 351 352 353 354 354 356 357 358 357 356 356 358 357 356 357 357 358 359 359 360 2 3 4 5 6 7 7 8 8 8 8 8 8
179 176 174 177 185 195 201 205 211 220 228 237 246 252 255 260 266 269 268 263 258 258 261 262 262 263 267 274 283 291 299 306 312 315 317 320 321 322 324 327 330 334 338 341 342 342 340 340 342 344 345 347 347 348 348 349 350 351 352 353 356 356 356 356 355 355 358 358 357 356 357 357 358 360 1 2 3 4 5 5 6 7 7 8 8 8 9 9
172 171 174 183 192 199 203 208 215 222 230 239 245 248 254 260 263 263 259 253 253 256 258 259 260 264 270 279 287 294 301 308 312 313 315 317 317 320 323 325 330 335 337 338 337 338 339 340 341 342 343 345 346 346 346 347 348 349 350 353 354 355 355 355 355 355 357 359 358 357 356 356 357 360 1 2 3 3 4 5 6 6 7 8 8 8 9 9
168 173 182 190 196 201 206 212 219 225 233 239 243 248 254 257 258 256 250 249 250 253 256 259 262 268 275 282 288 295 301 307 311 313 315 316 318 321 324 327 331 332 332 331 333 336 338 338 339 340 341 342 343 344 345 346 347 347 349 351 352 353 354 355 355 356 356 358 358 357 356 356 357 360 1 1 2 2 4 5 5 6 7 8 8 8 9 9
174 182 189 195 200 205 211 217 223 228 233 238 244 249 253 253 252 248 246 248 249 251 255 259 264 272 279 285 290 296 303 308 312 315 316 318 320 322 324 326 328 328 329 330 333 336 336 335 336 338 338 339 341 343 345 346 346 347 348 350 351 351 353 355 356 356 356 357 358 357 355 356 357 359 360 0 1 2 4 5 4 5 6 7 8 8 8 9
182 188 195 201 206 211 215 220 224 228 232 239 244 248 249 247 243 244 247 248 249 251 255 262 269 276 282 287 292 298 304 310 314 316 317 318 319 321 323 325 326 327 329 331 333 334 335 334 335 336 337 339 341 343 345 345 346 347 348 350 350 351 353 354 355 356 355 356 358 357 355 355 356 358 359 359 359 2 3 3 4 5 6 6 7 7 7 7
186 193 200 205 208 211 215 220 225 230 235 240 244 244 242 240 239 243 246 248 250 253 258 265 271 278 282 287 293 300 306 312 315 317 317 318 319 321 323 325 326 328 329 331 332 333 333 334 334 335 337 339 341 342 343 345 346 347 349 349 349 350 352 353 353 354 355 354 356 358 357 355 356 356 357 358 359 1 2 2 3 5 5 5 6 6 6 6
189 196 200 202 204 210 216 223 229 234 237 239 241 238 235 235 239 244 246 249 252 255 261 267 272 277 282 287 294 301 308 313 316 318 319 320 321 323 324 326 327 328 329 330 332 331 332 333 334 335 337 338 340 341 342 344 346 347 347 348 349 349 350 352 353 354 354 354 354 356 357 355 354 354 355 357 359 359 0 1 3 4 5 4 5 5 5 5
192 194 195 198 205 213 220 226 231 234 237 237 236 233 232 235 240 244 247 251 254 258 263 269 273 277 281 287 294 302 309 314 317 319 321 323 324 325 327 328 328 328 329 330 330 331 332 332 333 335 336 337 338 340 341 342 344 345 345 347 348 348 348 350 352 353 354 354 353 354 356 355 354 353 355 357 358 357 358 360 2 3 3 3 4 4 4 4
191 193 196 203 212 220 226 229 232 234 234 233 230 230 233 237 242 245 249 253 257 261 266 269 272 277 281 288 296 304 310 315 317 319 321 323 325 327 328 329 329 329 329 329 330 330 331 332 332 333 335 335 336 338 340 340 341 342 344 345 346 347 347 348 350 352 353 354 353 353 354 355 354 353 354 355 356 356 357 358 0 1 2 3 3 3 3 4
191 194 202 210 219 226 230 232 233 232 231 228 227 230 235 240 244 247 252 255 259 263 266 269 272 277 282 290 298 305 310 313 315 317 318 320 322 325 326 328 328 329 329 329 329 330 330 331 331 332 333 334 335 335 336 337 338 340 342 343 344 346 347 347 348 350 352 353 352 352 353 354 354 353 353 353 354 355 356 357 358 360 1 2 2 3 3 3
193 200 210 218 225 230 234 235 233 231 227 225 227 233 239 243 246 250 254 258 261 263 265 269 273 278 284 291 299 304 309 311 313 314 315 317 320 322 324 326 327 327 327 328 328 329 330 330 331 331 331 332 333 333 334 336 337 338 340 341 342 344 346 347 347 348 350 352 352 352 353 353 353 353 352 352 353 354 355 356 357 359 360 1 1 2 2 2
199 209 218 223 229 233 235 236 233 229 226 227 231 236 241 245 249 253 257 259 261 263 265 270 275 281 286 292 298 304 307 309 311 312 314 316 318 321 323 324 324 325 325 326 326 327 327 328 329 329 329 330 331 332 333 335 335 336 337 339 341 343 344 345 346 347 349 351 352 351 351 352 352 352 351 351 352 353 355 356 357 358 359 360 0 1 1 1
208 217 223 227 231 234 236 234 231 228 227 230 235 240 244 248 252 256 259 260 261 262 265 271 278 283 287 292 298 302 305 308 309 310 312 314 316 318 320 321 322 323 323 324 324 325 326 327 327 328 327 328 329 330 331 332 333 334 335 337 339 341 343 344 346 347 348 349 352 351 349 350 351 351 351 351 352 353 355 355 356 357 358 359 360 0 0 0
216 223 226 229 232 235 234 232 229 228 231 235 239 243 247 250 254 258 260 261 262 263 267 272 279 284 288 291 296 301 304 306 307 308 310 311 313 315 317 319 320 321 322 323 324 324 325 325 326 327 327 326 327 328 329 329 331 332 334 335 337 339 341 343 345 347 347 347 350 351 349 349 350 351 351 351 352 353 354 354 355 356 357 358 359 359 359 360
222 227 229 231 234 235 233 230 230 232 235 240 244 247 250 253 256 259 261 263 264 266 269 274 279 284 288 291 294 299 302 304 306 307 308 309 311 314 316 317 318 320 321 322 323 324 324 325 325 326 326 325 325 326 327 328 330 332 333 334 336 338 341 343 344 345 346 346 348 350 349 348 348 350 350 351 351 352 353 353 354 355 356 357 357 358 358 358
226 230 232 234 235 234 232 231 233 236 240 244 248 251 253 256 259 262 264 266 267 270 273 276 280 283 287 290 293 297 300 302 304 305 306 307 309 312 314 315 316 318 319 321 322 323 324 325 325 326 326 326 326 326 327 329 330 332 334 335 336 338 340 342 343 344 345 346 346 348 349 348 347 348 350 350 351 351 352 353 353 355 356 356 356 357 357 357
229 232 234 236 235 233 232 233 235 239 244 248 251 253 256 258 262 264 267 269 271 274 277 279 282 284 287 289 292 295 297 300 302 304 305 306 307 309 311 313 315 316 317 319 321 322 323 324 324 325 326 327 327 328 329 330 331 332 334 336 336 337 339 341 341 342 344 346 345 346 347 347 346 347 348 349 349 350 350 352 353 354 354 355 355 355 356 356
233 236 237 237 235 233 233 236 239 243 247 251 253 255 257 260 264 267 269 271 274 277 280 282 284 286 287 289 292 294 297 299 301 303 304 305 306 308 310 312 313 315 316 318 319 321 322 324 324 324 325 326 327 327 328 329 330 332 333 334 335 336 338 339 340 341 343 344 345 345 345 346 346 345 347 348 348 349 350 351 352 353 353 353 354 354 354 355
237 239 238 237 235 234 236 239 243 248 252 254 256 257 259 262 265 268 270 274 277 281 283 285 287 288 289 291 293 295 297 299 301 303 304 305 306 308 309 311 313 314 315 316 318 320 321 322 323 323 324 325 325 326 327 328 329 331 332 332 334 335 336 337 338 339 341 342 344 345 344 344 344 344 345 347 347 348 349 350 351 352 352 352 353 353 353 354
239 239 239 238 237 237 239 243 247 251 255 257 259 261 263 265 267 269 271 275 279 282 285 287 288 290 291 292 294 296 298 300 301 303 304 305 306 308 309 311 312 313 315 316 317 319 320 321 322 322 322 323 324 325 326 327 327 328 329 331 332 332 333 334 336 338 340 341 342 343 343 343 343 343 344 346 346 347 348 349 350 351 351 351 351 352 352 353
241 240 239 239 239 240 243 247 251 255 258 261 263 264 266 268 269 271 273 276 279 283 285 287 289 291 292 294 295 296 298 300 301 302 304 305 306 307 309 310 312 313 314 315 316 318 319 320 321 321 321 322 323 323 323 324 324 325 327 329 330 329 330 332 335 336 338 340 340 342 342 342 342 342 343 345 346 346 347 349 349 350 350 350 351 351 352 352
242 241 241 241 242 244 246 250 254 257 261 264 266 267 269 270 271 273 275 278 281 283 285 287 289 291 292 294 295 297 298 300 301 302 304 305 306 307 309 310 311 313 314 315 316 317 319 319 320 320 320 319 320 320 321 321 322 324 325 326 327 327 328 331 333 335 336 338 339 340 341 341 341 342 342 344 345 345 346 348 349 349 349 350 350 351 351 352
242 242 243 244 245 248 250 253 256 259 263 265 268 269 271 272 274 276 278 280 282 285 286 288 290 291 293 294 296 297 299 300 302 303 304 306 307 308 309 311 312 313 313 314 316 316 317 318 318 319 319 318 319 319 319 320 321 322 322 323 325 327 328 329 331 332 334 336 338 339 340 340 340 341 342 343 344 345 346 348 348 348 348 349 349 350 351 351